Leesburg, FL

4:54 PM EST on December 07, 2019 (GMT -0500)
Leesburg Regional

Weather History for KLEE - October, 2019

Change the Weather History Date:

Wednesday, October 16, 2019

  Actual Average Record
Temperature  
Mean Temperature 82 °F -  
Max Temperature 91 °F 83 °F 91 °F (2017)
Min Temperature 75 °F 63 °F 50 °F (1961)
Cooling Degree Days 18    
Growing Degree Days 32 (Base 50)    
Moisture  
Dew Point 72 °F    
Average Humidity 76    
Maximum Humidity 88    
Minimum Humidity 54    
Precipitation  
Precipitation 0.00 in - - ()
Sea Level Pressure  
Sea Level Pressure 29.90 in    
Wind  
Wind Speed 10 mph (SW)    
Max Wind Speed 18 mph    
Max Gust Speed 29 mph    
Visibility 9 miles    
Events Rain , Thunderstorm    
Averages and records for this station are not official NWS values.
T = Trace of Precipitation, MM = Missing Value Source: NWS Daily Summary

Daily Weather History Graph

Daily Weather History Graph

Search for Another Location

Airport or City:

Astronomy

Oct. 16, 2019 Rise Set
Actual Time 7:28 AM EDT 6:56 PM EDT
Civil Twilight 7:04 AM EDT 7:20 PM EDT
Nautical Twilight 6:37 AM EDT 7:47 PM EDT
Astronomical Twilight 6:09 AM EDT 8:15 PM EDT
Moon 8:59 PM EDT (10/16) 9:49 AM EDT (10/16)
Length of Visible Light 12h 15m
Length of Day
11h 27m
Waning Gibbous, 93% of the Moon is Illuminated
Oct 16
Waning Gibbous
Oct 21
Last Quarter
Oct 27
New
Nov 4
First Quarter
Nov 12
Full

Hourly Weather History & Observations

Time (EDT) Temp. Heat Index Dew Point Humidity Pressure Visibility Wind Dir Wind Speed Gust Speed Precip Events Conditions
12:53 AM 78.1 °F - 69.1 °F 74% 29.99 in 10.0 mi South 8.1 mph - N/A   Partly Cloudy
1:53 AM 78.1 °F - 68.0 °F 71% 29.95 in 10.0 mi South 10.4 mph - N/A   Clear
2:53 AM 78.1 °F - 69.1 °F 74% 29.96 in 10.0 mi SSW 9.2 mph - N/A   Clear
3:53 AM 77.0 °F - 69.1 °F 76% 29.94 in 10.0 mi South 11.5 mph - N/A   Clear
4:53 AM 77.0 °F - 70.0 °F 79% 29.92 in 10.0 mi South 11.5 mph - N/A   Clear
5:53 AM 75.9 °F - 70.0 °F 82% 29.92 in 10.0 mi South 8.1 mph - N/A   Clear
6:53 AM 75.9 °F - 71.1 °F 85% 29.93 in 10.0 mi SSW 9.2 mph - N/A   Mostly Cloudy
7:53 AM 75.9 °F - 71.1 °F 85% 29.93 in 10.0 mi South 6.9 mph - N/A   Clear
8:53 AM 77.0 °F - 71.1 °F 82% 29.91 in 10.0 mi SSW 9.2 mph - N/A   Scattered Clouds
9:53 AM 81.0 °F 85.8 °F 73.0 °F 77% 29.92 in 10.0 mi SSW 9.2 mph - N/A   Clear
10:53 AM 86.0 °F 93.0 °F 73.0 °F 65% 29.91 in 10.0 mi WSW 12.7 mph 21.9 mph N/A   Scattered Clouds
11:19 AM 86.0 °F 93.0 °F 73.0 °F 65% 29.91 in 10.0 mi SW 11.5 mph 20.7 mph N/A   Mostly Cloudy
11:29 AM 87.1 °F 94.5 °F 73.0 °F 63% 29.92 in 10.0 mi WSW 11.5 mph 20.7 mph N/A   Mostly Cloudy
11:53 AM 87.1 °F 94.5 °F 73.0 °F 63% 29.91 in 10.0 mi WSW 11.5 mph 19.6 mph N/A   Mostly Cloudy
12:53 PM 90.0 °F 96.4 °F 71.1 °F 54% 29.89 in 10.0 mi WSW 11.5 mph 24.2 mph N/A   Mostly Cloudy
1:53 PM 89.1 °F 96.0 °F 72.0 °F 57% 29.87 in 10.0 mi WNW 13.8 mph 20.7 mph N/A   Mostly Cloudy
2:53 PM 82.9 °F 88.8 °F 73.0 °F 72% 29.87 in 10.0 mi West 13.8 mph 23.0 mph 0.00 in   Mostly Cloudy
3:53 PM 84.9 °F 91.4 °F 73.0 °F 67% 29.87 in 10.0 mi WSW 12.7 mph 23.0 mph N/A   Partly Cloudy
4:15 PM 84.9 °F 92.1 °F 73.9 °F 69% 29.88 in 10.0 mi West 9.2 mph 20.7 mph N/A Thunderstorm Scattered Clouds
4:24 PM 84.0 °F 91.2 °F 73.9 °F 72% 29.88 in 10.0 mi West 10.4 mph 19.6 mph N/A   Mostly Cloudy
4:36 PM 77.0 °F - 71.1 °F 82% 29.90 in 1.5 mi WNW 13.8 mph 28.8 mph 0.00 in Rain , Thunderstorm Heavy Thunderstorms and Rain
4:41 PM 75.9 °F - 71.1 °F 85% 29.89 in 0.5 mi WNW 18.4 mph 28.8 mph N/A Rain , Thunderstorm Heavy Thunderstorms and Rain
4:50 PM 78.8 °F - 69.8 °F 74% 29.88 in 10.0 mi West 6.9 mph 26.5 mph N/A   Overcast
4:53 PM 78.1 °F - 71.1 °F 79% 29.87 in 10.0 mi West 8.1 mph - N/A   Overcast
5:53 PM 79.0 °F - 73.0 °F 82% 29.85 in 10.0 mi SW 8.1 mph - N/A   Clear
6:53 PM 78.1 °F - 72.0 °F 81% 29.83 in 10.0 mi SSW 5.8 mph - N/A   Clear
7:53 PM 78.1 °F - 73.0 °F 84% 29.85 in 10.0 mi SW 5.8 mph - N/A   Clear
8:53 PM 78.1 °F - 73.0 °F 84% 29.88 in 10.0 mi West 5.8 mph - N/A   Partly Cloudy
9:53 PM 77.0 °F - 73.0 °F 88% 29.89 in 10.0 mi SW 4.6 mph - N/A   Clear
10:53 PM 77.0 °F - 73.0 °F 88% 29.91 in 10.0 mi West 5.8 mph - N/A   Clear
11:53 PM 77.0 °F - 73.0 °F 88% 29.91 in 10.0 mi West 4.6 mph - N/A   Clear